Location: Newark
(25.6108°S, 54.5803°W)
Time: 06:10:36
(UTC+00:00)

deb Explorer IX - Pass Details

Date: 28 October 2020
Orbit: 538 x 1104 km, 38.8° (Epoch: 27 November)

Event Time Altitude Azimuth Distance (km) Brightness Sun altitude
Rises 01:15:01 0° 230° (SW) 2,801 ? -40.3°
Enters shadow 01:16:59 - 221° (SW) 2,103 ? -40.6°
Reaches altitude 10° 01:17:46 10° 215° (SW) 1,849 - -40.8°
Maximum altitude 01:21:04 22° 162° (SSE) 1,215 - -41.3°
Drops below altitude 10° 01:24:18 10° 109° (ESE) 1,802 - -41.7°
Sets 01:26:55 0° 93° (E) 2,709 - -42.1°
